Location: Cortos
(40.7190°N, 4.5893°W)
Time: 09:03:19
(UTC+00:00)

OAO 2 Rocket - Pass Details

Date: 05 July 2020
Orbit: 676 x 746 km, 35.0° (Epoch: 07 August)

Event Time Altitude Azimuth Distance (km) Brightness Sun altitude
Rises 21:38:36 0° 254° (WSW) 3,161 7.0 -16.0°
Reaches altitude 10° 21:41:07 10° 248° (WSW) 2,244 6.1 -16.3°
Maximum altitude 21:46:09 45° 177° (S) 1,001 3.7 -16.9°
Enters shadow 21:48:28 28° 123° (ESE) 1,364 4.3 -17.1°
